Location: Bagnolo San Vito
(45.0833°N, 10.8833°E)
Time: 08:21:49
(UTC+00:00)

YAOGAN 1 - Pass Details

Date: 03 March 2021
Orbit: 618 x 620 km, 97.9° (Epoch: 18 April)

Event Time Altitude Azimuth Distance (km) Brightness Sun altitude
Rises 17:36:45 0° 154° (SSE) 2,884 5.8 -6.1°
Reaches altitude 10° 17:38:57 10° 151° (SSE) 1,983 4.9 -6.5°
Maximum altitude 17:43:11 57° 73° (ENE) 736 2.6 -7.2°
Drops below altitude 10° 17:47:26 10° 355° (N) 1,999 5.2 -8.0°
Sets 17:49:40 0° 351° (N) 2,910 6.1 -8.4°
